,,Stat6,,Stat2,,Stat8,,Stat9,,Stat10,,Wind1,,Wind1,
time,status,PA1M_AVG,status,PR1M_SUM,status,RH1M_AVG,status,SR1M_AVG,status,TA1M_AVG,status,W1dAve1m,status,W1sAve1m,
2007-08-03, 00:00:00,VALID,919.174,VALID,0,VALID,100,VALID,0,VALID,19.5915,VALID,170,VALID,0.820122,
2007-08-03, 00:01:00,VALID,919.161,VALID,0,VALID,100,VALID,0.0169808,VALID,19.5648,VALID,161,VALID,0.91353,
2007-08-03, 00:02:00,VALID,919.157,VALID,0,VALID,100,VALID,0.0169808,VALID,19.5748,VALID,177,VALID,0.608648,
2007-08-03, 00:03:00,VALID,919.139,VALID,0,VALID,100,VALID,0.0169808,VALID,19.5778,VALID,152,VALID,0.702398,
2007-08-03, 00:04:00,VALID,919.139,VALID,0,VALID,100,VALID,0,VALID,19.6007,VALID,153,VALID,0.641426,
2007-08-03, 00:05:00,VALID,919.141,VALID,0,VALID,100,VALID,0.0339617,VALID,19.597,VALID,147,VALID,0.563834,
2007-08-03, 00:06:00,VALID,919.123,VALID,0,VALID,100,VALID,0.0169808,VALID,19.5972,VALID,145,VALID,0.442765,
2007-08-03, 00:07:00,VALID,919.122,VALID,0,VALID,100,VALID,0.0169808,VALID,19.6005,VALID,142,VALID,0.527798,
2007-08-03, 00:08:00,VALID,919.12,VALID,0,VALID,100,VALID,0.0509425,VALID,19.581,VALID,138,VALID,0.453307,
2007-08-03, 00:09:00,VALID,919.112,VALID,0,VALID,100,VALID,0.0169808,VALID,19.5551,VALID,134,VALID,0.663699,
2007-08-03, 00:10:00,VALID,919.121,VALID,0,VALID,100,VALID,0.0339617,VALID,19.5388,VALID,119,VALID,0.922619,
2007-08-03, 00:11:00,VALID,919.11,VALID,0,VALID,100,VALID,0.0169808,VALID,19.5421,VALID,116,VALID,1.01389,
2007-08-03, 00:12:00,VALID,919.11,VALID,0,VALID,100,VALID,0.0169808,VALID,19.5513,VALID,125,VALID,0.909549,
2007-08-03, 00:13:00,VALID,919.092,VALID,0,VALID,100,VALID,0.0169808,VALID,19.5875,VALID,129,VALID,0.89597,
2007-08-03, 00:14:00,VALID,919.076,VALID,0,VALID,100,VALID,0,VALID,19.6199,VALID,131,VALID,0.750363,
2007-08-03, 00:15:00,VALID,919.08,VALID,0,VALID,100,VALID,-0.118866,VALID,19.6479,VALID,145,VALID,0.800876,
2007-08-03, 00:16:00,VALID,919.061,VALID,0,VALID,100,VALID,-0.0849042,VALID,19.6506,VALID,152,VALID,0.739931,
2007-08-03, 00:17:00,VALID,919.045,VALID,0,VALID,100,VALID,-0.101885,VALID,19.6409,VALID,144,VALID,0.672066,
2007-08-03, 00:18:00,VALID,919.018,VALID,0,VALID,100,VALID,-0.0679233,VALID,19.6414,VALID,143,VALID,0.559524,
2007-08-03, 00:19:00,VALID,918.996,VALID,0,VALID,100,VALID,-0.0679233,VALID,19.6149,VALID,143,VALID,0.462754,
2007-08-03, 00:20:00,VALID,918.968,VALID,0,VALID,100,VALID,-0.0849042,VALID,19.5825,VALID,143,VALID,0.681504,
2007-08-03, 00:21:00,VALID,918.937,VALID,0,VALID,100,VALID,-0.101885,VALID,19.5565,VALID,142,VALID,0.535792,
2007-08-03, 00:22:00,VALID,918.911,VALID,0,VALID,100,VALID,-0.0849042,VALID,19.5338,VALID,133,VALID,0.617001,
2007-08-03, 00:23:00,VALID,918.897,VALID,0,VALID,100,VALID,-0.0679233,VALID,19.5074,VALID,130,VALID,0.757813,
2007-08-03, 00:24:00,VALID,918.884,VALID,0,VALID,100,VALID,-0.0679233,VALID,19.5009,VALID,129,VALID,0.825639,
2007-08-03, 00:25:00,VALID,918.868,VALID,0,VALID,100,VALID,-0.0849042,VALID,19.5044,VALID,131,VALID,0.854492,
2007-08-03, 00:26:00,VALID,918.852,VALID,0,VALID,100,VALID,-0.0679233,VALID,19.4947,VALID,131,VALID,0.83125,
2007-08-03, 00:27:00,VALID,918.832,VALID,0,VALID,100,VALID,-0.0849042,VALID,19.4817,VALID,129,VALID,0.889205,
2007-08-03, 00:28:00,VALID,918.825,VALID,0,VALID,100,VALID,-0.0679233,VALID,19.4719,VALID,126,VALID,0.973586,
2007-08-03, 00:29:00,VALID,918.819,VALID,0,VALID,100,VALID,-0.0679233,VALID,19.446,VALID,124,VALID,1.02489,
2007-08-03, 00:30:00,VALID,918.808,VALID,0,VALID,100,VALID,-0.0169808,VALID,19.4221,VALID,122,VALID,1.03247,
2007-08-03, 00:31:00,VALID,918.8,VALID,0,VALID,100,VALID,0,VALID,19.4058,VALID,123,VALID,0.986683,
2007-08-03, 00:32:00,VALID,918.798,VALID,0,VALID,100,VALID,0,VALID,19.3929,VALID,123,VALID,1.06745,
2007-08-03, 00:33:00,VALID,918.783,VALID,0,VALID,100,VALID,0,VALID,19.3766,VALID,122,VALID,1.14825,
2007-08-03, 00:34:00,VALID,918.764,VALID,0,VALID,100,VALID,0,VALID,19.3801,VALID,127,VALID,1.27859,
2007-08-03, 00:35:00,VALID,918.754,VALID,0,VALID,100,VALID,0.0169808,VALID,19.3864,VALID,126,VALID,1.05804,
2007-08-03, 00:36:00,VALID,918.749,VALID,0,VALID,100,VALID,-0.0169808,VALID,19.3929,VALID,129,VALID,1.36559,
2007-08-03, 00:37:00,VALID,918.739,VALID,0,VALID,100,VALID,0,VALID,19.3896,VALID,128,VALID,1.13299,
2007-08-03, 00:38:00,VALID,918.741,VALID,0,VALID,100,VALID,0.0339617,VALID,19.3993,VALID,128,VALID,1.06603,
2007-08-03, 00:39:00,VALID,918.741,VALID,0,VALID,100,VALID,0.0339617,VALID,19.4058,VALID,126,VALID,0.815163,
2007-08-03, 00:40:00,VALID,918.741,VALID,0,VALID,100,VALID,0.0339617,VALID,19.4123,VALID,134,VALID,0.663154,
2007-08-03, 00:41:00,VALID,918.74,VALID,0,VALID,100,VALID,0.0169808,VALID,19.4156,VALID,129,VALID,0.494048,
2007-08-03, 00:42:00,VALID,918.741,VALID,0,VALID,100,VALID,-0.0169808,VALID,19.4285,VALID,128,VALID,0.236861,
2007-08-03, 00:43:00,VALID,918.728,VALID,0,VALID,100,VALID,0.0339617,VALID,19.4415,VALID,75,VALID,0.360069,
2007-08-03, 00:44:00,VALID,918.739,VALID,0,VALID,100,VALID,0,VALID,19.4547,VALID,61,VALID,0.48266,
2007-08-03, 00:45:00,VALID,918.731,VALID,0,VALID,100,VALID,0.0509425,VALID,19.4675,VALID,49,VALID,0.697493,
2007-08-03, 00:46:00,VALID,918.708,VALID,0,VALID,100,VALID,-0.0169808,VALID,19.4153,VALID,52,VALID,0.728659,
2007-08-03, 00:47:00,VALID,918.69,VALID,0,VALID,100,VALID,0,VALID,19.3801,VALID,64,VALID,0.889717,
2007-08-03, 00:48:00,VALID,918.669,VALID,0,VALID,100,VALID,0,VALID,19.3831,VALID,86,VALID,0.857813,
2007-08-03, 00:49:00,VALID,918.64,VALID,0,VALID,100,VALID,0,VALID,19.3639,VALID,76,VALID,1.0261,
2007-08-03, 00:50:00,VALID,918.626,VALID,0,VALID,100,VALID,0,VALID,19.3929,VALID,76,VALID,0.920945,
2007-08-03, 00:51:00,VALID,918.609,VALID,0,VALID,100,VALID,0,VALID,19.4026,VALID,73,VALID,0.829985,
2007-08-03, 00:52:00,VALID,918.592,VALID,0,VALID,100,VALID,0,VALID,19.3996,VALID,71,VALID,0.705983,
2007-08-03, 00:53:00,VALID,918.582,VALID,0,VALID,100,VALID,0.0169808,VALID,19.3896,VALID,71,VALID,0.425442,
2007-08-03, 00:54:00,VALID,918.561,VALID,0,VALID,100,VALID,-0.0169808,VALID,19.3864,VALID,71,VALID,0.41867,
2007-08-03, 00:55:00,VALID,918.557,VALID,0,VALID,100,VALID,0,VALID,19.3734,VALID,71,VALID,0.350074,
2007-08-03, 00:56:00,VALID,918.557,VALID,0,VALID,100,VALID,0,VALID,19.3507,VALID,71,VALID,0.183866,
2007-08-03, 00:57:00,VALID,918.544,VALID,0,VALID,100,VALID,0.0339617,VALID,19.3277,VALID,71,VALID,0.218056,
2007-08-03, 00:58:00,VALID,918.55,VALID,0,VALID,100,VALID,-0.0169808,VALID,19.3085,VALID,71,VALID,0.132617,
2007-08-03, 00:59:00,VALID,918.545,VALID,0,VALID,100,VALID,0,VALID,19.2636,VALID,71,VALID,0.0677083,
2007-08-03, 01:00:00,VALID,918.553,VALID,0,VALID,100,VALID,0,VALID,19.2015,VALID,71,VALID,0.217862,
2007-08-03, 01:01:00,VALID,918.552,VALID,0,VALID,100,VALID,0,VALID,19.169,VALID,71,VALID,0.28125,
2007-08-03, 01:02:00,VALID,918.538,VALID,0,VALID,100,VALID,-0.0169808,VALID,19.166,VALID,69,VALID,0.322173,
2007-08-03, 01:03:00,VALID,918.541,VALID,0,VALID,100,VALID,0.0339617,VALID,19.1431,VALID,43,VALID,0.545387,
2007-08-03, 01:04:00,VALID,918.542,VALID,0,VALID,100,VALID,0.0169808,VALID,19.1625,VALID,43,VALID,0.397727,
2007-08-03, 01:05:00,VALID,918.546,VALID,0,VALID,100,VALID,0,VALID,19.182,VALID,43,VALID,0.374645,
2007-08-03, 01:06:00,VALID,918.55,VALID,0,VALID,100,VALID,0,VALID,19.205,VALID,40,VALID,0.470084,
2007-08-03, 01:07:00,VALID,918.551,VALID,0,VALID,100,VALID,0,VALID,19.2307,VALID,12,VALID,0.480923,
2007-08-03, 01:08:00,VALID,918.54,VALID,0,VALID,100,VALID,0,VALID,19.2536,VALID,8,VALID,0.0356326,
2007-08-03, 01:09:00,VALID,918.528,VALID,0,VALID,100,VALID,-0.0169808,VALID,19.2633,VALID,8,VALID,0,
2007-08-03, 01:10:00,VALID,918.518,VALID,0,VALID,100,VALID,0,VALID,19.2733,VALID,8,VALID,0,
2007-08-03, 01:11:00,VALID,918.494,VALID,0,VALID,100,VALID,0,VALID,19.2499,VALID,8,VALID,0,
2007-08-03, 01:12:00,VALID,918.475,VALID,0,VALID,100,VALID,-0.0169808,VALID,19.1917,VALID,8,VALID,0,
2007-08-03, 01:13:00,VALID,918.456,VALID,0,VALID,100,VALID,0,VALID,19.1563,VALID,8,VALID,0,
2007-08-03, 01:14:00,VALID,918.424,VALID,0,VALID,100,VALID,0.0169808,VALID,19.1333,VALID,8,VALID,0.176829,
2007-08-03, 01:15:00,VALID,918.396,VALID,0,VALID,100,VALID,0.0339617,VALID,19.1009,VALID,8,VALID,0.275436,
2007-08-03, 01:16:00,VALID,918.378,VALID,0,VALID,100,VALID,0.0339617,VALID,19.0847,VALID,8,VALID,0.331836,
2007-08-03, 01:17:00,VALID,918.365,VALID,0,VALID,100,VALID,0.0339617,VALID,19.078,VALID,9,VALID,0.433594,
2007-08-03, 01:18:00,VALID,918.353,VALID,0,VALID,100,VALID,0.0339617,VALID,19.1558,VALID,13,VALID,0.592226,
2007-08-03, 01:19:00,VALID,918.355,VALID,0,VALID,100,VALID,0.0509425,VALID,19.2015,VALID,15,VALID,0.417225,
2007-08-03, 01:20:00,VALID,918.361,VALID,0,VALID,100,VALID,0.0339617,VALID,19.1269,VALID,15,VALID,0.308866,
2007-08-03, 01:21:00,VALID,918.359,VALID,0,VALID,100,VALID,0.0169808,VALID,18.9939,VALID,15,VALID,0.458891,
2007-08-03, 01:22:00,VALID,918.356,VALID,0,VALID,100,VALID,0.0339617,VALID,18.9288,VALID,22,VALID,0.514648,
2007-08-03, 01:23:00,VALID,918.349,VALID,0,VALID,100,VALID,0.0509425,VALID,18.9647,VALID,51,VALID,0.708147,
2007-08-03, 01:24:00,VALID,918.327,VALID,0,VALID,100,VALID,0,VALID,19.0617,VALID,60,VALID,0.723544,
2007-08-03, 01:25:00,VALID,918.327,VALID,0,VALID,100,VALID,0,VALID,19.1593,VALID,64,VALID,0.875182,
2007-08-03, 01:26:00,VALID,918.302,VALID,0,VALID,100,VALID,0.0169808,VALID,19.2045,VALID,69,VALID,0.989062,
2007-08-03, 01:27:00,VALID,918.297,VALID,0,VALID,100,VALID,0.0169808,VALID,19.2501,VALID,72,VALID,0.844727,
2007-08-03, 01:28:00,VALID,918.29,VALID,0,VALID,100,VALID,0.0169808,VALID,19.283,VALID,73,VALID,0.784028,
2007-08-03, 01:29:00,VALID,918.281,VALID,0,VALID,100,VALID,0.0509425,VALID,19.2826,VALID,73,VALID,0.729106,
2007-08-03, 01:30:00,VALID,918.283,VALID,0,VALID,100,VALID,-0.0679233,VALID,19.284,VALID,72,VALID,0.783296,
2007-08-03, 01:31:00,VALID,918.28,VALID,0,VALID,100,VALID,-0.0849042,VALID,19.2773,VALID,72,VALID,0.795313,
2007-08-03, 01:32:00,VALID,918.275,VALID,0,VALID,100,VALID,-0.0509425,VALID,19.287,VALID,69,VALID,0.83194,
2007-08-03, 01:33:00,VALID,918.277,VALID,0,VALID,100,VALID,-0.0679233,VALID,19.2771,VALID,44,VALID,0.691034,
2007-08-03, 01:34:00,VALID,918.269,VALID,0,VALID,100,VALID,-0.0169808,VALID,19.2576,VALID,46,VALID,0.572674,
2007-08-03, 01:35:00,VALID,918.254,VALID,0,VALID,100,VALID,-0.0169808,VALID,19.2159,VALID,46,VALID,0.451672,
2007-08-03, 01:36:00,VALID,918.241,VALID,0,VALID,100,VALID,-0.101885,VALID,19.2094,VALID,46,VALID,0.681686,
2007-08-03, 01:37:00,VALID,918.22,VALID,0,VALID,100,VALID,-0.0679233,VALID,19.2029,VALID,46,VALID,0.638021,
2007-08-03, 01:38:00,VALID,918.214,VALID,0,VALID,100,VALID,-0.101885,VALID,19.2259,VALID,46,VALID,0.662388,
2007-08-03, 01:39:00,VALID,918.202,VALID,0,VALID,100,VALID,-0.0849042,VALID,19.2191,VALID,46,VALID,0.684375,
2007-08-03, 01:40:00,VALID,918.188,VALID,0,VALID,100,VALID,-0.101885,VALID,19.2321,VALID,46,VALID,0.449219,
2007-08-03, 01:41:00,VALID,918.187,VALID,0,VALID,100,VALID,-0.0509425,VALID,19.2449,VALID,46,VALID,0.325,
2007-08-03, 01:42:00,VALID,918.177,VALID,0,VALID,100,VALID,-0.0509425,VALID,19.2481,VALID,46,VALID,0.288504,
2007-08-03, 01:43:00,VALID,918.17,VALID,0,VALID,100,VALID,-0.0509425,VALID,19.2611,VALID,46,VALID,0.310976,
2007-08-03, 01:44:00,VALID,918.164,VALID,0,VALID,100,VALID,-0.0679233,VALID,19.2671,VALID,46,VALID,0.195313,
2007-08-03, 01:45:00,VALID,918.157,VALID,0,VALID,100,VALID,-0.0509425,VALID,19.2641,VALID,46,VALID,0.117001,
2007-08-03, 01:46:00,VALID,918.154,VALID,0,VALID,100,VALID,-0.0509425,VALID,19.2376,VALID,46,VALID,0.177951,
2007-08-03, 01:47:00,VALID,918.129,VALID,0,VALID,100,VALID,-0.0339617,VALID,19.2321,VALID,46,VALID,0.167535,
2007-08-03, 01:48:00,VALID,918.115,VALID,0,VALID,100,VALID,-0.0509425,VALID,19.2124,VALID,105,VALID,0.501598,
2007-08-03, 01:49:00,VALID,918.114,VALID,0,VALID,100,VALID,-0.0849042,VALID,19.1767,VALID,166,VALID,1.13021,
2007-08-03, 01:50:00,VALID,918.096,VALID,0,VALID,100,VALID,-0.0509425,VALID,19.1406,VALID,168,VALID,1.23952,
2007-08-03, 01:51:00,VALID,918.074,VALID,0,VALID,100,VALID,-0.0849042,VALID,19.1151,VALID,172,VALID,0.712109,
2007-08-03, 01:52:00,VALID,918.065,VALID,0,VALID,100,VALID,-0.0339617,VALID,19.0894,VALID,181,VALID,0.788194,
2007-08-03, 01:53:00,VALID,918.049,VALID,0,VALID,100,VALID,-0.0849042,VALID,19.0602,VALID,181,VALID,0.669922,
2007-08-03, 01:54:00,VALID,918.028,VALID,0,VALID,100,VALID,-0.0849042,VALID,19.047,VALID,190,VALID,0.766352,
2007-08-03, 01:55:00,VALID,918.019,VALID,0,VALID,100,VALID,-0.0339617,VALID,19.0342,VALID,186,VALID,0.600561,
2007-08-03, 01:56:00,VALID,918.016,VALID,0,VALID,100,VALID,-0.0679233,VALID,19.0307,VALID,186,VALID,0.439596,
2007-08-03, 01:57:00,VALID,918.009,VALID,0,VALID,100,VALID,-0.0339617,VALID,19.031,VALID,186,VALID,0.427778,
2007-08-03, 01:58:00,VALID,917.996,VALID,0,VALID,100,VALID,-0.0679233,VALID,19.031,VALID,186,VALID,0.311285,
2007-08-03, 01:59:00,VALID,917.988,VALID,0,VALID,100,VALID,-0.0339617,VALID,19.0375,VALID,186,VALID,0.242914,
2007-08-03, 02:00:00,VALID,917.968,VALID,0,VALID,100,VALID,-0.101885,VALID,19.0372,VALID,191,VALID,0.322599,
2007-08-03, 02:01:00,VALID,917.943,VALID,0,VALID,100,VALID,-0.0679233,VALID,19.0569,VALID,197,VALID,0.54415,
2007-08-03, 02:02:00,VALID,917.926,VALID,0,VALID,100,VALID,-0.101885,VALID,19.0861,VALID,203,VALID,0.376715,
2007-08-03, 02:03:00,VALID,917.912,VALID,0,VALID,100,VALID,-0.0849042,VALID,19.1088,VALID,205,VALID,0.267188,
2007-08-03, 02:04:00,VALID,917.903,VALID,0,VALID,100,VALID,-0.101885,VALID,19.1183,VALID,205,VALID,0.125888,
2007-08-03, 02:05:00,VALID,917.892,VALID,0,VALID,100,VALID,-0.101885,VALID,19.1378,VALID,205,VALID,0.0422585,
2007-08-03, 02:06:00,VALID,917.864,VALID,0,VALID,100,VALID,-0.101885,VALID,19.154,VALID,205,VALID,0.0565476,
2007-08-03, 02:07:00,VALID,917.85,VALID,0,VALID,100,VALID,-0.118866,VALID,19.1218,VALID,205,VALID,0,
2007-08-03, 02:08:00,VALID,917.846,VALID,0,VALID,100,VALID,-0.0849042,VALID,19.0961,VALID,205,VALID,0,
2007-08-03, 02:09:00,VALID,917.823,VALID,0,VALID,100,VALID,-0.0849042,VALID,19.0602,VALID,205,VALID,0,
2007-08-03, 02:10:00,VALID,917.809,VALID,0,VALID,100,VALID,-0.101885,VALID,19.0505,VALID,205,VALID,0,
2007-08-03, 02:11:00,VALID,917.802,VALID,0,VALID,100,VALID,-0.101885,VALID,19.0567,VALID,205,VALID,0.0152616,
2007-08-03, 02:12:00,VALID,917.792,VALID,0,VALID,100,VALID,-0.0679233,VALID,19.0407,VALID,205,VALID,0,
2007-08-03, 02:13:00,VALID,917.788,VALID,0,VALID,100,VALID,-0.0679233,VALID,18.9853,VALID,205,VALID,0,
2007-08-03, 02:14:00,VALID,917.778,VALID,0,VALID,100,VALID,-0.101885,VALID,18.9561,VALID,205,VALID,0,
2007-08-03, 02:15:00,VALID,917.764,VALID,0,VALID,100,VALID,-0.0849042,VALID,18.9402,VALID,205,VALID,0,
2007-08-03, 02:16:00,VALID,917.761,VALID,0,VALID,100,VALID,-0.101885,VALID,18.904,VALID,205,VALID,0,
2007-08-03, 02:17:00,VALID,917.755,VALID,0,VALID,100,VALID,-0.0849042,VALID,18.8915,VALID,205,VALID,0,
2007-08-03, 02:18:00,VALID,917.759,VALID,0,VALID,100,VALID,-0.0849042,VALID,18.8716,VALID,205,VALID,0,
2007-08-03, 02:19:00,VALID,917.74,VALID,0,VALID,100,VALID,-0.101885,VALID,18.8621,VALID,205,VALID,0,
2007-08-03, 02:20:00,VALID,917.743,VALID,0,VALID,100,VALID,-0.0849042,VALID,18.8391,VALID,205,VALID,0.44122,
2007-08-03, 02:21:00,VALID,917.742,VALID,0,VALID,100,VALID,-0.101885,VALID,18.8002,VALID,205,VALID,0.720385,
2007-08-03, 02:22:00,VALID,917.756,VALID,0,VALID,100,VALID,-0.0679233,VALID,18.8002,VALID,201,VALID,0.635764,
2007-08-03, 02:23:00,VALID,917.764,VALID,0,VALID,100,VALID,-0.0509425,VALID,18.7905,VALID,201,VALID,0.287695,
2007-08-03, 02:24:00,VALID,917.77,VALID,0,VALID,100,VALID,-0.0169808,VALID,18.7805,VALID,203,VALID,0.44016,
2007-08-03, 02:25:00,VALID,917.771,VALID,0,VALID,100,VALID,-0.0849042,VALID,18.7905,VALID,198,VALID,0.441406,
2007-08-03, 02:26:00,VALID,917.762,VALID,0,VALID,100,VALID,-0.101885,VALID,18.7845,VALID,194,VALID,0.667188,
2007-08-03, 02:27:00,VALID,917.753,VALID,0,VALID,100,VALID,-0.0849042,VALID,18.7905,VALID,203,VALID,0.819271,
2007-08-03, 02:28:00,VALID,917.736,VALID,0,VALID,100,VALID,-0.101885,VALID,18.7972,VALID,198,VALID,0.759549,
2007-08-03, 02:29:00,VALID,917.711,VALID,0,VALID,100,VALID,-0.0849042,VALID,18.79,VALID,189,VALID,0.905488,
2007-08-03, 02:30:00,VALID,917.684,VALID,0,VALID,100,VALID,-0.0509425,VALID,18.7803,VALID,189,VALID,0.344965,
2007-08-03, 02:31:00,VALID,917.674,VALID,0,VALID,100,VALID,-0.0509425,VALID,18.7543,VALID,189,VALID,0.00581395,
2007-08-03, 02:32:00,VALID,917.652,VALID,0,VALID,100,VALID,-0.0509425,VALID,18.7281,VALID,189,VALID,0.241257,
2007-08-03, 02:33:00,VALID,917.64,VALID,0,VALID,100,VALID,-0.101885,VALID,18.7388,VALID,168,VALID,0.394985,
2007-08-03, 02:34:00,VALID,917.642,VALID,0,VALID,100,VALID,-0.0849042,VALID,18.7189,VALID,149,VALID,0.402699,
2007-08-03, 02:35:00,VALID,917.635,VALID,0,VALID,100,VALID,-0.0849042,VALID,18.7194,VALID,149,VALID,0.407738,
2007-08-03, 02:36:00,VALID,917.632,VALID,0,VALID,100,VALID,-0.101885,VALID,18.6959,VALID,148,VALID,0.643864,
2007-08-03, 02:37:00,VALID,917.623,VALID,0,VALID,100,VALID,-0.101885,VALID,18.7029,VALID,148,VALID,0.607088,
2007-08-03, 02:38:00,VALID,917.61,VALID,0,VALID,100,VALID,-0.101885,VALID,18.7029,VALID,145,VALID,0.790698,
2007-08-03, 02:39:00,VALID,917.596,VALID,0,VALID,100,VALID,-0.0679233,VALID,18.7096,VALID,136,VALID,0.926054,
2007-08-03, 02:40:00,VALID,917.573,VALID,0,VALID,100,VALID,-0.0849042,VALID,18.7191,VALID,134,VALID,0.883176,
2007-08-03, 02:41:00,VALID,917.543,VALID,0,VALID,100,VALID,-0.0849042,VALID,18.7221,VALID,132,VALID,0.829297,
2007-08-03, 02:42:00,VALID,917.519,VALID,0,VALID,100,VALID,-0.0509425,VALID,18.7124,VALID,130,VALID,0.773624,
2007-08-03, 02:43:00,VALID,917.485,VALID,0,VALID,100,VALID,-0.0849042,VALID,18.7224,VALID,118,VALID,0.815039,
2007-08-03, 02:44:00,VALID,917.49,VALID,0,VALID,100,VALID,-0.0509425,VALID,18.6762,VALID,107,VALID,0.652644,
2007-08-03, 02:45:00,VALID,917.473,VALID,0,VALID,100,VALID,-0.101885,VALID,18.6378,VALID,121,VALID,0.732143,
2007-08-03, 02:46:00,VALID,917.468,VALID,0,VALID,100,VALID,-0.0509425,VALID,18.6241,VALID,121,VALID,1.07489,
2007-08-03, 02:47:00,VALID,917.48,VALID,0,VALID,100,VALID,-0.0509425,VALID,18.6371,VALID,126,VALID,1.01916,
2007-08-03, 02:48:00,VALID,917.482,VALID,0,VALID,100,VALID,-0.0339617,VALID,18.6403,VALID,120,VALID,0.948933,
2007-08-03, 02:49:00,VALID,917.489,VALID,0,VALID,100,VALID,-0.0509425,VALID,18.6246,VALID,121,VALID,0.908537,
2007-08-03, 02:50:00,VALID,917.487,VALID,0,VALID,100,VALID,-0.0679233,VALID,18.6276,VALID,124,VALID,0.985863,
2007-08-03, 02:51:00,VALID,917.492,VALID,0,VALID,100,VALID,-0.0849042,VALID,18.6278,VALID,135,VALID,1.0799,
2007-08-03, 02:52:00,VALID,917.491,VALID,0,VALID,100,VALID,-0.0169808,VALID,18.6343,VALID,135,VALID,0.993459,
2007-08-03, 02:53:00,VALID,917.482,VALID,0,VALID,100,VALID,-0.0849042,VALID,18.667,VALID,142,VALID,1.48299,
2007-08-03, 02:54:00,VALID,917.477,VALID,0,VALID,100,VALID,-0.0679233,VALID,18.7066,VALID,147,VALID,1.00908,
2007-08-03, 02:55:00,VALID,917.466,VALID,0,VALID,100,VALID,-0.101885,VALID,18.7094,VALID,145,VALID,0.940739,
2007-08-03, 02:56:00,VALID,917.452,VALID,0,VALID,100,VALID,-0.0849042,VALID,18.7126,VALID,141,VALID,1.03693,
2007-08-03, 02:57:00,VALID,917.453,VALID,0,VALID,100,VALID,-0.0679233,VALID,18.7351,VALID,145,VALID,1.49409,
2007-08-03, 02:58:00,VALID,917.441,VALID,0,VALID,100,VALID,-0.0679233,VALID,18.7513,VALID,142,VALID,1.35411,
2007-08-03, 02:59:00,VALID,917.415,VALID,0,VALID,100,VALID,-0.0509425,VALID,18.7615,VALID,146,VALID,1.38477,
2007-08-03, 03:00:00,VALID,917.392,VALID,0,VALID,100,VALID,-0.0339617,VALID,18.7476,VALID,129,VALID,1.11018,
2007-08-03, 03:01:00,VALID,917.384,VALID,0,VALID,100,VALID,-0.101885,VALID,18.758,VALID,135,VALID,1.26816,
2007-08-03, 03:02:00,VALID,917.373,VALID,0,VALID,100,VALID,-0.0849042,VALID,18.768,VALID,140,VALID,1.07831,
2007-08-03, 03:03:00,VALID,917.381,VALID,0,VALID,100,VALID,-0.0849042,VALID,18.7648,VALID,123,VALID,1.27219,
2007-08-03, 03:04:00,VALID,917.384,VALID,0,VALID,100,VALID,-0.0679233,VALID,18.7478,VALID,104,VALID,1.05398,
2007-08-03, 03:05:00,VALID,917.384,VALID,0,VALID,100,VALID,-0.0679233,VALID,18.7513,VALID,113,VALID,1.25109,
2007-08-03, 03:06:00,VALID,917.39,VALID,0,VALID,100,VALID,-0.0679233,VALID,18.7453,VALID,115,VALID,1.3205,
2007-08-03, 03:07:00,VALID,917.376,VALID,0,VALID,100,VALID,-0.0679233,VALID,18.7388,VALID,102,VALID,1.15607,
2007-08-03, 03:08:00,VALID,917.378,VALID,0,VALID,100,VALID,-0.118866,VALID,18.7421,VALID,111,VALID,1.60863,
2007-08-03, 03:09:00,VALID,917.381,VALID,0,VALID,100,VALID,-0.0679233,VALID,18.7349,VALID,115,VALID,1.81548,
2007-08-03, 03:10:00,VALID,917.363,VALID,0,VALID,100,VALID,-0.0849042,VALID,18.7353,VALID,121,VALID,1.30287,
2007-08-03, 03:11:00,VALID,917.352,VALID,0,VALID,100,VALID,-0.0679233,VALID,18.7316,VALID,121,VALID,1.74162,
2007-08-03, 03:12:00,VALID,917.34,VALID,0,VALID,100,VALID,-0.0849042,VALID,18.7476,VALID,122,VALID,1.76211,
2007-08-03, 03:13:00,VALID,917.325,VALID,0,VALID,100,VALID,-0.0849042,VALID,18.7675,VALID,117,VALID,1.02827,
2007-08-03, 03:14:00,VALID,917.312,VALID,0,VALID,100,VALID,-0.0849042,VALID,18.7812,VALID,118,VALID,1.38579,
2007-08-03, 03:15:00,VALID,917.293,VALID,0,VALID,100,VALID,0.0169808,VALID,18.7726,VALID,131,VALID,1.71675,
2007-08-03, 03:16:00,VALID,917.29,VALID,0,VALID,100,VALID,0.0339617,VALID,18.7955,VALID,132,VALID,1.4573,
2007-08-03, 03:17:00,VALID,917.296,VALID,0,VALID,100,VALID,0.0169808,VALID,18.796,VALID,116,VALID,0.809837,
2007-08-03, 03:18:00,VALID,917.295,VALID,0,VALID,100,VALID,0.0509425,VALID,18.802,VALID,111,VALID,1.56288,
2007-08-03, 03:19:00,VALID,917.289,VALID,0,VALID,100,VALID,0.0509425,VALID,18.8118,VALID,114,VALID,1.5141,
2007-08-03, 03:20:00,VALID,917.288,VALID,0,VALID,100,VALID,0.0339617,VALID,18.822,VALID,118,VALID,1.24833,
2007-08-03, 03:21:00,VALID,917.272,VALID,0,VALID,100,VALID,0.0509425,VALID,18.8087,VALID,106,VALID,1.56996,
2007-08-03, 03:22:00,VALID,917.268,VALID,0,VALID,100,VALID,0,VALID,18.8155,VALID,95,VALID,1.27976,
2007-08-03, 03:23:00,VALID,917.258,VALID,0,VALID,100,VALID,0.0169808,VALID,18.812,VALID,103,VALID,2.05526,
2007-08-03, 03:24:00,VALID,917.264,VALID,0,VALID,100,VALID,0.0509425,VALID,18.8023,VALID,106,VALID,1.62553,
2007-08-03, 03:25:00,VALID,917.285,VALID,0,VALID,100,VALID,0.0169808,VALID,18.809,VALID,103,VALID,1.44336,
2007-08-03, 03:26:00,VALID,917.298,VALID,0,VALID,100,VALID,0,VALID,18.8023,VALID,107,VALID,1.57227,
2007-08-03, 03:27:00,VALID,917.317,VALID,0,VALID,100,VALID,0.0339617,VALID,18.7993,VALID,109,VALID,1.15394,
2007-08-03, 03:28:00,VALID,917.333,VALID,0,VALID,100,VALID,0.0339617,VALID,18.7923,VALID,115,VALID,1.23018,
2007-08-03, 03:29:00,VALID,917.331,VALID,0,VALID,100,VALID,0,VALID,18.7828,VALID,130,VALID,0.900391,
2007-08-03, 03:30:00,VALID,917.333,VALID,0,VALID,100,VALID,0,VALID,18.799,VALID,126,VALID,1.45185,
2007-08-03, 03:31:00,VALID,917.332,VALID,0,VALID,100,VALID,0,VALID,18.7791,VALID,130,VALID,1.23129,
2007-08-03, 03:32:00,VALID,917.316,VALID,0,VALID,100,VALID,0.0339617,VALID,18.799,VALID,141,VALID,1.18092,
2007-08-03, 03:33:00,VALID,917.323,VALID,0,VALID,100,VALID,0.0679233,VALID,18.7916,VALID,141,VALID,1.29179,
2007-08-03, 03:34:00,VALID,917.304,VALID,0,VALID,100,VALID,0.0849042,VALID,18.7955,VALID,145,VALID,1.59502,
2007-08-03, 03:35:00,VALID,917.294,VALID,0,VALID,100,VALID,0.0339617,VALID,18.7694,VALID,136,VALID,1.58848,
2007-08-03, 03:36:00,VALID,917.292,VALID,0,VALID,100,VALID,0.0679233,VALID,18.7629,VALID,127,VALID,1.14768,
2007-08-03, 03:37:00,VALID,917.285,VALID,0,VALID,100,VALID,0.0509425,VALID,18.7561,VALID,121,VALID,0.970117,
2007-08-03, 03:38:00,VALID,917.304,VALID,0,VALID,100,VALID,0.0509425,VALID,18.7466,VALID,117,VALID,0.980841,
2007-08-03, 03:39:00,VALID,917.297,VALID,0,VALID,100,VALID,0.0339617,VALID,18.7334,VALID,121,VALID,0.727257,
2007-08-03, 03:40:00,VALID,917.32,VALID,0,VALID,100,VALID,0.0509425,VALID,18.7302,VALID,130,VALID,1.3497,
2007-08-03, 03:41:00,VALID,917.321,VALID,0,VALID,100,VALID,0,VALID,18.7244,VALID,113,VALID,1.11868,
2007-08-03, 03:42:00,VALID,917.305,VALID,0,VALID,100,VALID,0.0679233,VALID,18.7077,VALID,99,VALID,0.749479,